This is the latest recevied weather packets stored in our database for station/object KE8CZD. If no packets are shown the sender has not sent any weather packets the latest 10 day(s).
| Time | Temp. | Humidity | Pressure | Rain* | Wind** | Luminosity | Snow |
|---|---|---|---|---|---|---|---|
| 1777673204 | 7.78° C | 51% | 1011.7 hPa | 0 mm | - | - | - |
| 1777672845 | 7.22° C | 50% | 1011.7 hPa | 0 mm | - | - | - |
| 1777672484 | 7.78° C | 46% | 1011.5 hPa | 0 mm | - | - | - |
| 1777672124 | 8.33° C | 44% | 1011.4 hPa | 0 mm | - | - | - |
| 1777671764 | 8.33° C | 42% | 1011.3 hPa | 0 mm | - | - | - |
| 1777671404 | 8.89° C | 43% | 1011.3 hPa | 0 mm | - | - | - |
| 1777671045 | 8.89° C | 43% | 1011.3 hPa | 0 mm | - | - | - |
| 1777670684 | 8.33° C | 45% | 1011.2 hPa | 0 mm | - | - | - |
| 1777670325 | 8.33° C | 46% | 1011.2 hPa | 0 mm | - | - | - |
| 1777669965 | 8.33° C | 46% | 1011.1 hPa | 0 mm | - | - | - |
| 1777669604 | 8.33° C | 46% | 1011.1 hPa | 0 mm | - | - | - |
| 1777669244 | 8.33° C | 45% | 1011.1 hPa | 0 mm | - | - | - |
| 1777668884 | 8.33° C | 45% | 1011.1 hPa | 0 mm | - | - | - |
| 1777668524 | 8.33° C | 45% | 1011.1 hPa | 0 mm | - | - | - |
| 1777668164 | 8.33° C | 44% | 1011.1 hPa | 0 mm | - | - | - |
| 1777667804 | 8.89° C | 44% | 1011 hPa | 0 mm | - | - | - |
| 1777667444 | 8.89° C | 44% | 1010.9 hPa | 0 mm | - | - | - |
| 1777667085 | 9.44° C | 46% | 1011 hPa | 0 mm | - | - | - |
| 1777666727 | 8.89° C | 46% | 1011 hPa | 0 mm | - | - | - |
| 1777666365 | 8.33° C | 48% | 1011 hPa | 0 mm | - | - | - |
| 1777666005 | 8.33° C | 48% | 1011 hPa | 0 mm | - | - | - |
| 1777665645 | 8.33° C | 46% | 1011.1 hPa | 0 mm | - | - | - |
| 1777665284 | 8.89° C | 43% | 1010.9 hPa | 0 mm | - | - | - |
| 1777664924 | 9.44° C | 43% | 1010.8 hPa | 0 mm | - | - | - |
| 1777664565 | 8.89° C | 43% | 1010.7 hPa | 0 mm | - | - | - |
* Rain latest hour (hover to see other rain measurements)
** Current wind speed in m/s (hover to see current wind gust speed)